Home   Weather   Qadian   Past weeks

Flag for India Past Weather in Qadian, Punjab, India — Yesterday and Last 2 Weeks

Now
88 °F

Scattered clouds.


Feels Like: 88 °F
Forecast: 70 / 93 °F
Wind: 9 mph from North

Location: Amritsar Airport

Current Time: Apr 23, 2017 at 1:37:18 pm

Latest Report: Apr 23, 2017 at 12:30 pm


Visibility: 4 mi

Pressure: 29.74 "Hg

Humidity: 40%

Dew Point: 61 °F

Location of QadianLocation

Past Weather in Qadian — Graph

°F

Qadian Temperature Yesterday

Maximum temperature yesterday: 86 °F (at 3:30 pm)
Minimum temperature yesterday: 70 °F (at 4:30 am)
Average temperature yesterday: 78 °F

High & Low Weather Summary for the Past Weeks

 TemperatureHumidityPressure
High109 °F (Apr 18, 4:30 pm)100% (Apr 22, 4:30 am)30.01 "Hg (Apr 22, 4:30 am)
Low50 °F (Apr 9, 6:00 am)8% (Apr 19, 1:00 pm)29.45 "Hg (Apr 20, 5:00 pm)
Average83 °F38%29.72 "Hg
* Reported Apr 8 11:30 am — Apr 23 11:35 am, Qadian, Weather by CustomWeather, © 2017

Note: Actual official high and low records may vary slightly from our data, if they occured in-between our weather recording intervals... More about our weather records

Advertising

Qadian Weather History for the Previous 24 Hours

Scroll right to see more
 ConditionsComfort  
Time TempWeatherWind HumidityBarometerVisibility
11:35 am
Sun, Apr 23
84 °FScattered clouds.13 mph48%29.74 "Hg4 mi
11:00 am82 °FBroken clouds.9 mph58%29.74 "Hg2 mi
10:30 am84 °FBroken clouds.9 mph45%29.74 "Hg2 mi
10:00 am82 °FBroken clouds.6 mph51%29.74 "Hg2 mi
9:30 am81 °FBroken clouds.8 mph48%29.74 "Hg2 mi
9:00 am73 °FThunderstorms. More clouds than sun.14 mph74%29.77 "Hg1 mi
8:30 am72 °FThunderstorms. More clouds than sun.5 mph78%29.80 "Hg1 mi
8:00 am73 °FThundershowers. More clouds than sun.12 mph74%29.80 "Hg1 mi
7:30 am73 °FThundershowers. More clouds than sun.14 mph69%29.74 "Hg1 mi
7:00 am75 °FThundershowers. Broken clouds.18 mph65%29.77 "Hg1 mi
6:30 am70 °FFog.No wind100%29.68 "Hg2 mi
6:00 am70 °FFog.No wind100%29.68 "Hg2 mi
5:30 am68 °FThunderstorms. Mostly cloudy.No wind100%29.68 "Hg2 mi
4:30 am70 °FThunderstorms. Mostly cloudy.2 mph100%29.68 "Hg2 mi
4:00 am72 °FThunderstorms. Mostly cloudy.7 mph83%29.71 "Hg2 mi
3:30 am73 °FThunderstorms. Mostly cloudy.2 mph69%29.71 "Hg2 mi
2:30 am72 °FThunderstorms. Mostly cloudy.8 mph78%29.65 "Hg2 mi
12:30 am72 °FFog.2 mph78%29.74 "Hg2 mi
12:00 am73 °FThunderstorms. Mostly cloudy.2 mph74%29.74 "Hg2 mi
11:30 pm
Sat, Apr 22
73 °FThunderstorms. Mostly cloudy.3 mph74%29.74 "Hg1 mi
11:00 pm75 °FThunderstorms. Mostly cloudy.17 mph61%29.77 "Hg1 mi
10:30 pm82 °FThunderstorms. Mostly cloudy.8 mph40%29.71 "Hg2 mi
9:30 pm75 °FThunderstorms. Mostly cloudy.7 mph61%29.71 "Hg1 mi
9:00 pm75 °FThunderstorms. Mostly cloudy.9 mph65%29.71 "Hg1 mi
8:30 pm75 °FThunderstorms. Mostly cloudy.2 mph65%29.71 "Hg2 mi
7:30 pm79 °FThundershowers. Broken clouds.5 mph51%29.68 "Hg2 mi
7:00 pm82 °FThunderstorms. Broken clouds.9 mph40%29.65 "Hg2 mi
6:30 pm82 °FThundershowers. Broken clouds.13 mph40%29.68 "Hg2 mi
5:30 pm81 °FThunderstorms. Broken clouds.8 mph62%29.71 "Hg2 mi
5:00 pm84 °FBroken clouds.3 mph43%29.71 "Hg4 mi
4:30 pm84 °FScattered clouds.14 mph45%29.65 "Hg4 mi
4:00 pm86 °FScattered clouds.14 mph40%29.68 "Hg4 mi
3:30 pm86 °FScattered clouds.13 mph46%29.71 "Hg4 mi
3:00 pm81 °FScattered clouds.12 mph51%29.74 "Hg4 mi
1:30 pm79 °FScattered clouds.17 mph61%29.83 "Hg2 mi
Weather by CustomWeather, © 2017

See weather overviewHow to use our weather pages